Other Public Products
Issued by NWS Grand Forks, ND

Home | Current Version | Previous Version | Text Only | Print | Product List | Glossary On
Versions: 1 2 3 4 5 6 7 8 9 10 11 12 13 14 15 16 17 18 19 20 21 22 23 24 25 26 27 28 29 30 31 32 33 34 35 36 37 38 39 40 41 42 43 44 45 46 47 48 49 50
000
FPUS83 KFGF 231210
OPUFGF
PRAIRIE TO PINES WEATHER ROUNDUP
NATIONAL WEATHER SERVICE EASTERN NORTH DAKOTA/GRAND FORKS ND
600 AM CST TUE JAN 23 2018

 **SATELLITE DATA USED TO AUGMENT SKY COVER AT AUTOMATED STATIONS**
 *****  WEATHER ACROSS EASTERN NORTH DAKOTA  *****

CITY           SKY/WX    TMP DP  RH WIND       PRES   REMARKS
GRAND FORKS    CLOUDY    21  17  84 CALM      30.07R
6HR MIN TEMP:  21; 6HR MAX TEMP:  23;

GRND FORKS AFB CLOUDY    20  16  84 SE3       30.06S
GRND FORKS NWS   N/A     19 N/A N/A SE2         N/A
BUXTON           N/A     21  20  98 CALM        N/A
DEVILS LAKE    CLOUDY    19  17  92 SW12      30.00S FOG     WCI   7
6HR MIN TEMP:  18; 6HR MAX TEMP:  19; 6HR PCP: TRACE;

FARGO          CLOUDY    21  16  81 NE7       30.06F WCI  12
6HR MIN TEMP:  20; 6HR MAX TEMP:  24;

WAHPETON ARPT  CLOUDY    21  16  79 N10       30.07S WCI  10
$$

 *****  WEATHER ACROSS CENTRAL AND WESTERN NORTH DAKOTA  *****

CITY           SKY/WX    TMP DP  RH WIND       PRES   REMARKS
JAMESTOWN      CLOUDY    18  17  96 SW8       30.02R FOG     WCI   8
6HR MIN TEMP:  18; 6HR MAX TEMP:  20;

BISMARCK       FOG       15  12  88 CALM      30.03R VSB 1/4
6HR MIN TEMP:  15; 6HR MAX TEMP:  22;

MINOT          FAIR      16  13  88 SW8       29.97R WCI   5
6HR MIN TEMP:  11; 6HR MAX TEMP:  16;

MINOT AFB      FAIR      15  13  89 NW9       29.96R WCI   4
6HR MIN TEMP:   8; 6HR MAX TEMP:  15;

GARRISON         N/A      6   4  91 CALM      29.99R
6HR MIN TEMP:   5; 6HR MAX TEMP:  18;

WILLISTON      FAIR      19  15  84 S6        30.04R WCI  11
6HR MIN TEMP:  17; 6HR MAX TEMP:  23;

DICKINSON      FAIR      22  17  81 W13       29.98R WCI  10
6HR MIN TEMP:  22; 6HR MAX TEMP:  26;

HETTINGER      MOCLDY    23  18  81 W7        30.03R WCI  15
6HR MIN TEMP:  23; 6HR MAX TEMP:  27;

$$

 *****  OTHER OBSERVATIONS NORTHEAST NORTH DAKOTA  *****

CITY           SKY/WX    TMP DP  RH WIND       PRES   REMARKS
WALHALLA       FAIR      19  19 100 SW7       30.04S WCI  10
LANGDON        CLOUDY    19  19 100 SW12      29.99S FOG     WCI   7
CAVALIER         N/A     21  18  86 S8        30.04F WCI  12
GRAFTON        CLOUDY    21  18  86 SE7       30.08S WCI  13
CANDO          CLOUDY    19  19 100 SW8       30.00F FOG     WCI   9
FORT TOTTEN      N/A     19  18  95 S6        29.95S WCI  11
ROLLA          FOG       19  19 100 SW9       29.95S VSB 1/2 WCI   9
RUGBY          FOG       18  18 100 SW8       29.97S VSB 3/4 WCI   7
 ***** THE ABOVE OBSERVATIONS ARE NON NWS ARE NOT QUALITY
        CONTROLLED AND MAY MIS-REPORT RAIN FOR SNOW...
$$

 *****  OTHER OBSERVATIONS SOUTHEAST NORTH DAKOTA *****

CITY           SKY/WX    TMP DP  RH WIND       PRES   REMARKS
COOPERSTOWN    CLOUDY    19  19 100 SW5       30.03S FOG     WCI  13
VALLEY CITY    CLOUDY    18  18 100 SW5       30.05R WCI  11
OAKES            N/A     18  18 100 CALM      30.04F
GWINNER          N/A     19  18  93 CALM      30.05F
SHEYENNE NWR     N/A     21  19  91 CALM      29.95S
BUFFALO        NOT AVBL
WYNDMERE       NOT AVBL
 ***** THE ABOVE OBSERVATIONS ARE NON NWS ARE NOT QUALITY
       CONTROLLED AND MAY MIS-REPORT RAIN FOR SNOW...
$$

  *****  WEATHER ACROSS NORTHERN MINNESOTA  *****

CITY           SKY/WX    TMP DP  RH WIND       PRES   REMARKS
FLAG ISLAND    CLOUDY    12   9  85 CALM      30.06S
WARROAD        CLOUDY    16  10  79 E6        30.06S WCI   7
ROSEAU         CLOUDY    18  12  79 CALM      30.06S
HALLOCK        CLOUDY    19  16  86 SE6       30.06S WCI  11
THF RVR FALLS  CLOUDY    17  13  84 E3        30.07R
6HR MIN TEMP:  17; 6HR MAX TEMP:  19;

HALSTAD        NOT AVBL
FOSSTON        CLOUDY    18  12  79 NE3       30.04S
BAUDETTE       CLOUDY    12   8  84 NE3       30.05S
6HR MIN TEMP:  12; 6HR MAX TEMP:  17;

WASKISH        FAIR      10   9  92 CALM      30.06R
CROOKSTON      CLOUDY    19  16  86 CALM      30.09R
$$
  *****  WEATHER ACROSS CENTRAL AND WEST MINNESOTA  *****

CITY           SKY/WX    TMP DP  RH WIND       PRES   REMARKS
BEMIDJI        CLOUDY    17  13  84 N7        30.02S WCI   8
6HR MIN TEMP:  17; 6HR MAX TEMP:  20;

PARK RAPIDS    CLOUDY    19  13  77 NE6       30.00S WCI  11
6HR MIN TEMP:  15; 6HR MAX TEMP:  21;

WADENA         CLOUDY    18  12  79 N6        30.01S WCI   9
DETROIT LAKES  CLOUDY    19  18  93 CALM      30.03R
MOORHEAD       CLOUDY    19  16  86 N6        30.07S WCI  11
FERGUS FALLS   CLOUDY    19  16  86 N5        30.05R WCI  13
ELBOW LAKE     CLOUDY    20  16  83 NW7       30.04S WCI  11
6HR MIN TEMP:  20; 6HR MAX TEMP:  23;

MORRIS MN      CLOUDY    21  18  86 N13       30.04R WCI   9
STAPLES        CLOUDY    16  12  86 N9        30.01S WCI   4
WHEATON        CLOUDY    21  18  86 N10       30.08R WCI  10
$$
  *****  WEATHER ELSEWHERE ACROSS MINNESOTA  *****

CITY           SKY/WX    TMP DP  RH WIND       PRES   REMARKS
DULUTH         CLOUDY     7   1  76 N16       29.92R WCI -11
6HR MIN TEMP:   7; 6HR MAX TEMP:  14;

INTRNTL FALLS  FAIR       4  -1  80 NE6       30.05R WCI  -7
6HR MIN TEMP:   4; 6HR MAX TEMP:  13;

ELY            FAIR      -2  -6  84 CALM      29.99R
CLOQUET        CLOUDY     9   1  72 NW20      29.94R WCI -11
BRAINERD       MOCLDY    15  11  83 N7        30.01R WCI   5
6HR MIN TEMP:  14; 6HR MAX TEMP:  22;

HIBBING        FAIR       3  -1  83 N9        29.99R WCI -12
6HR MIN TEMP:   3; 6HR MAX TEMP:  12;

ALEXANDRIA     MOCLDY    19  15  84 N7        30.02R WCI  10
6HR MIN TEMP:  19; 6HR MAX TEMP:  23;

SAINT CLOUD    FAIR      18  14  84 N13G22    29.98R WCI   5
6HR MIN TEMP:  18; 6HR MAX TEMP:  24;

MINNEAPOLIS    CLOUDY    20  15  81 N16G24    29.95R WCI   6
6HR MIN TEMP:  19; 6HR MAX TEMP:  26; 6HR PCP:  0.07;

$$

  *****  WEATHER ACROSS SOUTH DAKOTA  *****

CITY           SKY/WX    TMP DP  RH WIND       PRES   REMARKS
SIOUX FALLS    CLOUDY    22  21  96 N10       30.04R WCI  11
6HR MIN TEMP:  22; 6HR MAX TEMP:  24;

BROOKINGS      CLOUDY    19  18  95 NW12      30.03R WCI   7
WATERTOWN      CLOUDY    19  18  95 N9        30.02S FOG     WCI   8
6HR MIN TEMP:  19; 6HR MAX TEMP:  20;

HURON          CLOUDY    20  19  96 NW8       30.08S FOG     WCI  10
6HR MIN TEMP:  19; 6HR MAX TEMP:  21;

SISSETON         N/A     21  18  88 NW10      30.05S WCI  10
ABERDEEN       CLOUDY    19  18  95 W6        30.07S WCI  11
6HR MIN TEMP:  19; 6HR MAX TEMP:  22;

MITCHELL       CLOUDY    21  20  96 NW12      30.09S WCI   9
PIERRE         FOG       18  18 100 SW3       30.06S VSB 1/2
6HR MIN TEMP:  18; 6HR MAX TEMP:  22;

MOBRIDGE       FOG       18  15  88 S5        30.01S VSB 1/4 WCI  11
RAPID CITY     CLOUDY    30  24  78 CALM      30.07S
6HR MIN TEMP:  30; 6HR MAX TEMP:  35;

$$

  *****  SOME WEATHER IN NEARBY STATES *****

CITY           SKY/WX    TMP DP  RH WIND       PRES   REMARKS
GLASGOW MT     FAIR      15  11  83 W5        30.07R WCI   8
6HR MIN TEMP:   9; 6HR MAX TEMP:  20;

GREAT FALLS MT FAIR      25  16  68 SW14      30.13R WCI  13
6HR MIN TEMP:  24; 6HR MAX TEMP:  28;

CHEYENNE WY    FAIR      24  12  60 NW12G18   30.11R WCI  13
6HR MIN TEMP:  21; 6HR MAX TEMP:  27;

SCOTTSBLUFF NE MOCLDY    23  16  74 W10       30.14R WCI  12
6HR MIN TEMP:  23; 6HR MAX TEMP:  27;

OMAHA NE       CLOUDY    26  21  81 NW18G31   30.08R WCI  13
6HR MIN TEMP:  26; 6HR MAX TEMP:  30; 6HR PCP: TRACE;

DES MOINES IA  CLOUDY    29  24  82 NW18G30   29.95R WCI  16
6HR MIN TEMP:  29; 6HR MAX TEMP:  30; 6HR PCP: TRACE;

DAVENPORT IA   CLOUDY    33  29  85 NW16G26   29.75R WCI  23
6HR MIN TEMP:  33; 6HR MAX TEMP:  35; 6HR PCP: TRACE;

CHICAGO IL     LGT SNOW  32  29  88 NW14      29.61R FOG     WCI  22
6HR MIN TEMP:  33; 6HR MAX TEMP:  39; 6HR PCP:  0.06;

EAU CLAIRE WI  CLOUDY    22  19  89 N10       29.84R WCI  11
6HR MIN TEMP:  22; 6HR MAX TEMP:  24; 6HR PCP:  0.01;

LA CROSSE WI   FLURRIES  28  23  81 NW17      29.80R WCI  16
6HR MIN TEMP:  27; 6HR MAX TEMP:  31; 6HR PCP:  0.03;

$$

  *****  SOME NATIONAL WEATHER *****

CITY           SKY/WX    TMP DP  RH WIND       PRES   REMA


USA.gov is the U.S. government's official web portal to all federal, state and local government web resources and services.